FENGYUN 1C DEB, 30971

Orbit data source: Space-Track

FENGYUN 1C DEB, 30971 is space debris in SSO originally from a launch on Mon, 10 May 1999 UTC launched from the Taiyaun Space Center, China (TSC). Fengyun 1C debris stems from the Chinese weather satellite Fengyun-1C, which was intentionally destroyed by a Chinese anti-satellite missile in 2007. This event dramatically increased the amount of space debris, with thousands of trackable fragments posing hazards to satellites and human spaceflight. The Fengyun 1C debris cloud has become a focal point in discussions about space sustainability and the need for international regulations to prevent the creation of new debris.

Loading next visibility...
Identifier
30971, 1999-025BBM
Orbit
SSO
Country
Flag of CNCN / PRC
Related business
Manufacturer
Unknown
Mission
Spacecraft
Bus & Motor
Unknown
Mass
Unknown
Launch date (UTC)
1999-05-10 (27 years ago)
Launch vehicle
Unknown
Launch site
Taiyaun Space Center, China (TSC)
Object type
Payload
Rocket body
Debris
Shape & HBR
Unknown shape, 0.1 m
Radar Cross Section
Medium (>0.1 m² and <1 m²)

Expand to show TLE details & history
Last TLE update: 2 days ago

TLE from 2 days ago
0 FENGYUN 1C DEB
1 30971U 99025BBM 26167.94922131  .00001865  00000-0  24610-3 0  9994
2 30971  99.1843 241.1927 0159353 336.1315 202.2093 14.73188061 24564
Epoch: 2026-06-16T22:46Z
TLE epoch observation values (Epoch: 2026-06-16T22:46:52.721Z)
Latitude
2.20279°
Longitude
174.61355°
Altitude
757.592 km
Speed
7.42 km/s
True Right ascension
04h 06m 11s
True Declination
2° 11' 23"
Sunlit
Object was in daylight at epoch
Visualization orbit readout
Latitude
Unknown
Longitude
Unknown
Altitude
Unknown
Speed
Unknown
Apparent Right ascension
Unknown
Apparent Declination
Unknown
Sunlit
N/A
Visualization observer readout
Local Sidereal Time
08:29:04
Azimuth
Unknown
Elevation
Unknown
Doppler factor
Unknown
Orbital elements
Apogee altitude
759.984 km
Perigee altitude
536.056 km
Semi-major axis
7,026.157 km
Eccentricity
0.01594
Inclination
99.1843°
RAAN
241.1927°
Arg. of periapsis
336.1315°
True anomaly
201.53159°
Mean anomaly
202.2093°
Eccentric anomaly
201.86921°
Mean motion
3.68525 °/min
Orbital period
97.69 mins
BSTAR
0.0002461
Loading maneuver chart data...
Computing Atmospheric mass density...
Loading historical data...
Loading historical data...
Loading historical data...
Loading historical data...
Loading historical data...
Loading historical data...
Loading historical data...

Documentation

Showing up to 5 results
|